User: anonymous   Login
Location: Melbourne
(37.8666°S, 145.1333°E)
Time: 21:17:34
(UTC+11:00)
Language:

ATLAS CENTAUR R/B - Orbit

View from above orbital plane
View from above orbital plane
View from above satellite
View from above satellite

Ground track
Ground track

The orbit data is extracted from the following two-line orbital elements,

1 28385U 04034B   15018.03172483 0.00059000  00000-0  20803-2 0    02
2 28385  57.3478 269.6445 4012499  40.5040 343.3875  7.46312966    07
Epoch (UTC): 18 January 2015 00:45:41
Eccentricity: 0.4012499
inclination: 57.3478°
perigee height: 244 km
apogee height: 9121 km
right ascension of ascending node: 269.6445°
argument of perigee: 40.5040°
revolutions per day: 7.46312966
mean anomaly at epoch: 343.3875°
orbit number at epoch: 0

The dashed part of the orbit path shows where the satellite is in the earth's shadow,  

DLR